Find DASH 1

NORAD ID: 589 Int'l Des: 1963-014 Owner: AFSSD Country: US operational
MEOCIRCULARPOLAR

リアルタイム位置

3D地球を読み込み中...

DASH 1について

説明を読み込み中...

次回通過

Passes for default location (London). Set your location on the main map for personalized predictions.

高度履歴

Loading altitude history...

軌道要素

1 00589U 63014D 26105.26028061 -.00000018 00000-0 -95629-2 0 9999
2 00589 87.3566 196.5050 0055605 17.7503 342.5280 8.65624702988378
Epoch: Apr 15, 2026 • Age: 34 hours

現在のステータス

高度 3606.2 km
速度 6.34 km/s
衛星直下点 54.36°N, 116.11°E
タイプ other

Most Searched